Other Public Products
Issued by NWS Grand Forks, ND

Home | Current Version | Previous Version | Text Only | Print | Product List | Glossary Off
Versions: 1 2 3 4 5 6 7 8 9 10 11 12 13 14 15 16 17 18 19 20 21 22 23 24 25 26 27 28 29 30 31 32 33 34 35 36 37 38 39 40 41 42 43 44 45 46 47 48 49 50

000
FPUS83 KFGF 250631
OPUFGF
PRAIRIE TO PINES WEATHER ROUNDUP
NATIONAL WEATHER SERVICE EASTERN NORTH DAKOTA/GRAND FORKS ND
100 AM CDT WED MAY 25 2016

 **SATELLITE DATA USED TO AUGMENT SKY COVER AT AUTOMATED STATIONS**
 *****  WEATHER ACROSS EASTERN NORTH DAKOTA  *****

CITY           SKY/WX    TMP DP  RH WIND       PRES   REMARKS
GRAND FORKS    MOCLDY    64  50  60 E9        29.88F
6HR MIN TEMP:  62; 6HR MAX TEMP:  79;

GRAND FORKS AF NOT AVBL
GRAND CITY NWS   N/A     64 N/A N/A E12         N/A
BUXTON           N/A     65  50  57 NE5         N/A
DEVILS LAKE    MOCLDY    63  56  78 SE8       29.90S
6HR MIN TEMP:  63; 6HR MAX TEMP:  76;

FARGO          CLOUDY    67  46  47 E10       29.86F
6HR MIN TEMP:  67; 6HR MAX TEMP:  83;

WAHPETON ARPT  CLEAR     63  48  59 E5        29.86S
$$

 *****  WEATHER ACROSS CENTRAL AND WESTERN NORTH DAKOTA  *****

CITY           SKY/WX    TMP DP  RH WIND       PRES   REMARKS
JAMESTOWN      NOT AVBL
BISMARCK       CLOUDY    66  50  56 NW6       29.85F
6HR MIN TEMP:  63; 6HR MAX TEMP:  77; 6HR PCP: TRACE;

MINOT          CLOUDY    61  43  51 N3        29.87S
6HR MIN TEMP:  59; 6HR MAX TEMP:  77;

MINOT AFB      CLOUDY    61  43  50 NE5       29.87R
6HR MIN TEMP:  61; 6HR MAX TEMP:  74;

GARRISON         N/A     64  46  52 W7        29.89R
6HR MIN TEMP:  59; 6HR MAX TEMP:  74;

WILLISTON      PTCLDY    53  38  56 N8        29.88R
6HR MIN TEMP:  53; 6HR MAX TEMP:  71;

DICKINSON      RAIN      54  50  86 E9        29.84R
6HR MIN TEMP:  54; 6HR MAX TEMP:  65; 6HR PCP:  0.07;

HETTINGER      CLOUDY    57  45  64 E7        29.85F
6HR MIN TEMP:  55; 6HR MAX TEMP:  72;

$$

 *****  OTHER OBSERVATIONS NORTHEAST NORTH DAKOTA  *****

CITY           SKY/WX    TMP DP  RH WIND       PRES   REMARKS
WALHALLA       FAIR      54  54 100 CALM      29.91S
LANGDON        FAIR      55  52  88 SE8       29.91F
CAVALIER       FAIR      61  52  72 CALM      29.90S
GRAFTON        FAIR      59  55  88 E6        29.91S
CANDO          FAIR      59  45  58 NE7       29.91F
FORT TOTTEN      N/A     65  47  52 SE7       29.95S
ROLLA          CLOUDY    57  45  62 N3        29.93R
RUGBY          FAIR      59  46  63 E8        29.88F
 ***** THE ABOVE OBSERVATIONS ARE NON NWS ARE NOT QUALITY
        CONTROLLED AND MAY MIS-REPORT RAIN FOR SNOW...
$$

 *****  OTHER OBSERVATIONS SOUTHEAST NORTH DAKOTA *****

CITY           SKY/WX    TMP DP  RH WIND       PRES   REMARKS
COOPERSTOWN    NOT AVBL
VALLEY CITY    FAIR      64  52  63 E9        29.89F
OAKES            N/A    N/A N/A N/A MISG        N/A
GWINNER        FAIR      63  52  67 NE8       29.84F
SHEYENNE NWR     N/A     62  48  60 E7        29.95S
BUFFALO          N/A     64  48  57 E13         N/A
WYNDMERE         N/A     66  52  59 SE12        N/A
 ***** THE ABOVE OBSERVATIONS ARE NON NWS ARE NOT QUALITY
       CONTROLLED AND MAY MIS-REPORT RAIN FOR SNOW...
$$

  *****  WEATHER ACROSS NORTHERN MINNESOTA  *****

CITY           SKY/WX    TMP DP  RH WIND       PRES   REMARKS
FLAG ISLAND    CLEAR     59  54  82 SE6       29.95S
WARROAD        CLEAR     57  54  88 SE6       29.96R
ROSEAU         CLEAR     61  52  72 SE7       29.95R
HALLOCK        HAZE      61  52  72 E8        29.90S VSB 1/2
THF RVR FALLS  PTCLDY    61  48  63 E10       29.94S
6HR MIN TEMP:  63; 6HR MAX TEMP:  75;

HALSTAD        NOT AVBL
FOSSTON        PTCLDY    57  48  72 E3        29.93F
BAUDETTE       CLEAR     55  50  83 SE6       29.96R
6HR MIN TEMP:  55; 6HR MAX TEMP:  73;

WASKISH        CLEAR     55  52  88 E6        29.97R
CROOKSTON      MOCLDY    63  52  67 E8        29.91S
$$
  *****  WEATHER ACROSS CENTRAL AND WEST MINNESOTA  *****

CITY           SKY/WX    TMP DP  RH WIND       PRES   REMARKS
BEMIDJI        CLEAR     53  49  83 CALM      29.95S
PARK RAPIDS    MOCLDY    59  52  77 CALM      29.94R
6HR MIN TEMP:  59; 6HR MAX TEMP:  81;

WADENA         CLEAR     57  52  82 CALM      29.92S
DETROIT LAKES  PTCLDY    63  52  67 SE9       29.92F
MOORHEAD       CLOUDY    64  52  63 E8        29.87F
FERGUS FALLS   CLEAR     64  52  63 E10       29.84F
ELBOW LAKE     FAIR      64  54  71 SE14      29.88F
6HR MIN TEMP:  64; 6HR MAX TEMP:  84;

MORRIS MN      CLOUDY    64  54  68 E15       29.85F
STAPLES        CLEAR     57  54  88 CALM      29.93S
WHEATON        CLOUDY    66  55  68 E10       29.86F
$$
  *****  WEATHER ELSEWHERE ACROSS MINNESOTA  *****

CITY           SKY/WX    TMP DP  RH WIND       PRES   REMARKS
DULUTH         FOG       50  49  96 E13       30.02R VSB 1/2
6HR MIN TEMP:  50; 6HR MAX TEMP:  61;

INTRNTL FALLS  CLEAR     51  50  96 SE6       29.97S
6HR MIN TEMP:  51; 6HR MAX TEMP:  66;

ELY            CLEAR     52  50  93 S3        30.01F
CLOQUET        FOG       52  48  87 E9        30.01R VSB 1/2
BRAINERD       CLOUDY    55  54  96 CALM      29.94R
6HR MIN TEMP:  55; 6HR MAX TEMP:  73; 6HR PCP:  0.50;

HIBBING        CLOUDY    55  53  93 SE15      30.00R
6HR MIN TEMP:  55; 6HR MAX TEMP:  76;

ALEXANDRIA     CLOUDY    63  51  65 E10       29.92R
6HR MIN TEMP:  62; 6HR MAX TEMP:  74;

SAINT CLOUD    PTCLDY    64  53  67 E6        29.91F
6HR MIN TEMP:  64; 6HR MAX TEMP:  77;

MINNEAPOLIS    CLOUDY    70  58  65 SE9       29.91S
6HR MIN TEMP:  70; 6HR MAX TEMP:  81;

$$

  *****  WEATHER ACROSS SOUTH DAKOTA  *****

CITY           SKY/WX    TMP DP  RH WIND       PRES   REMARKS
SIOUX FALLS    CLOUDY    70  62  76 SE9       29.83F
6HR MIN TEMP:  70; 6HR MAX TEMP:  81;

BROOKINGS      CLOUDY    66  58  75 SE9       29.84F
WATERTOWN      CLOUDY    69  50  50 SE6       29.83F
6HR MIN TEMP:  67; 6HR MAX TEMP:  82;

HURON          TSTM      68  60  75 SE6       29.78S
6HR MIN TEMP:  64; 6HR MAX TEMP:  82;

SISSETON         N/A     62  48  60 E7        29.83F
ABERDEEN       MOCLDY    66  51  58 NE10      29.80F
6HR MIN TEMP:  66; 6HR MAX TEMP:  83;

MITCHELL       CLOUDY    71  63  75 SE15      29.78F
PIERRE         LGT RAIN  58  55  90 N17G26    29.83F
6HR MIN TEMP:  57; 6HR MAX TEMP:  78; 6HR PCP:  0.56;

MOBRIDGE       LGT RAIN  63  52  67 SW13G22   29.84F
RAPID CITY     LGT RAIN  53  49  86 S12       29.88R
6HR MIN TEMP:  51; 6HR MAX TEMP:  63; 6HR PCP:  0.25;

$$

  *****  SOME WEATHER IN NEARBY STATES *****

CITY           SKY/WX    TMP DP  RH WIND       PRES   REMARKS
GLASGOW MT     PTCLDY    49  42  77 E9        29.89R
6HR MIN TEMP:  48; 6HR MAX TEMP:  63;

GREAT FALLS MT CLEAR     43  38  82 S10       29.90S
6HR MIN TEMP:  42; 6HR MAX TEMP:  60;

CHEYENNE WY    PTCLDY    53  34  48 NW12G20   29.94R
6HR MIN TEMP:  49; 6HR MAX TEMP:  58; 6HR PCP: TRACE;

SCOTTSBLUFF NE MOCLDY    52  47  83 E6        29.86R
6HR MIN TEMP:  52; 6HR MAX TEMP:  71; 6HR PCP:  0.01;

OMAHA NE       CLOUDY    73  64  73 SE10      29.85F
6HR MIN TEMP:  71; 6HR MAX TEMP:  81;

DES MOINES IA  CLOUDY    69  62  78 S8        29.94R
6HR MIN TEMP:  69; 6HR MAX TEMP:  82;

DAVENPORT IA   CLEAR     71  62  73 SW6       29.96R
6HR MIN TEMP:  69; 6HR MAX TEMP:  84;

CHICAGO IL     CLOUDY    73  59  61 S9        29.97R
6HR MIN TEMP:  72; 6HR MAX TEMP:  84;

EAU CLAIRE WI  CLOUDY    58  54  86 NE3       29.95R
6HR MIN TEMP:  57; 6HR MAX TEMP:  81;

LA CROSSE WI   CLEAR     65  59  81 E7        29.94R
6HR MIN TEMP:  65; 6HR MAX TEMP:  83;

$$

  *****  SOME NATIONAL WEATHER *****

CITY           SKY/WX    TMP DP  RH WIND       PRES   REMARKS
LA GUARDIA NY  PTCLDY    64  57  78 W3        29.99S
6HR MIN TEMP:  63; 6HR MAX TEMP:  70;                              C1F1C2F2C3F3C4F4C5F5C6F6C7F7C8F8C9F9CaFaCbFbCcFcCdFdCe!



USA.gov is the U.S. government's official web portal to all federal, state and local government web resources and services.